This is the latest recevied weather packets stored in our database for station/object AJ5AG. If no packets are shown the sender has not sent any weather packets the latest 10 day(s).
| Time | Temp. | Humidity | Pressure | Rain* | Wind** | Luminosity | Snow |
|---|---|---|---|---|---|---|---|
| 1778012191 | 30° C | 68% | 1010.3 hPa | 0 mm | - | 164 W/m² | - |
| 1778011889 | 30° C | 68% | 1010.2 hPa | 0 mm | - | 386 W/m² | - |
| 1778011587 | 30° C | 70% | 1010.4 hPa | 0 mm | - | 766 W/m² | - |
| 1778011284 | 28.89° C | 72% | 1010.4 hPa | 0 mm | - | 923 W/m² | - |
| 1778010980 | 28.33° C | 72% | 1010.7 hPa | 0 mm | - | 290 W/m² | - |
| 1778010677 | 28.89° C | 73% | 1010.8 hPa | 0 mm | - | 204 W/m² | - |
| 1778010374 | 28.89° C | 72% | 1010.9 hPa | 0 mm | - | 253 W/m² | - |
| 1778010070 | 28.89° C | 73% | 1010.9 hPa | 0 mm | - | 314 W/m² | - |
| 1778009767 | 28.89° C | 72% | 1011 hPa | 0 mm | - | 326 W/m² | - |
| 1778009464 | 28.89° C | 72% | 1010.9 hPa | 0 mm | - | 230 W/m² | - |
| 1778009163 | 28.89° C | 73% | 1011 hPa | 0 mm | - | 138 W/m² | - |
| 1778008860 | 28.33° C | 74% | 1011.1 hPa | 0 mm | - | 1036 W/m² | - |
| 1778008559 | 28.33° C | 73% | 1011 hPa | 0 mm | - | 240 W/m² | - |
| 1778008256 | 28.33° C | 74% | 1010.8 hPa | 0 mm | - | 375 W/m² | - |
| 1778007956 | 28.33° C | 73% | 1010.8 hPa | 0 mm | - | 396 W/m² | - |
| 1778007652 | 28.89° C | 72% | 1010.8 hPa | 0 mm | - | 295 W/m² | - |
| 1778007349 | 29.44° C | 71% | 1010.8 hPa | 0 mm | - | 152 W/m² | - |
| 1778007045 | 28.89° C | 72% | 1011 hPa | 0 mm | - | 750 W/m² | - |
| 1778006742 | 28.89° C | 73% | 1011 hPa | 0 mm | - | 423 W/m² | - |
| 1778006439 | 28.33° C | 73% | 1011.1 hPa | 0 mm | - | 367 W/m² | - |
| 1778006136 | 28.33° C | 74% | 1010.9 hPa | 0 mm | - | 446 W/m² | - |
| 1778005833 | 27.78° C | 75% | 1011 hPa | 0 mm | - | 367 W/m² | - |
| 1778005529 | 27.22° C | 78% | 1011.2 hPa | 0 mm | - | 500 W/m² | - |
| 1778005226 | 27.22° C | 78% | 1011.3 hPa | 0 mm | - | 150 W/m² | - |
| 1778004923 | 27.22° C | 76% | 1011.3 hPa | 0 mm | - | 135 W/m² | - |
* Rain latest hour (hover to see other rain measurements)
** Current wind speed in m/s (hover to see current wind gust speed)